Pittsburgh Allegheny Co., PA

7:17 AM EDT on April 26, 2017 (GMT -0400)
Allegheny County

Weather History for KAGC - January, 2012

Change the Weather History Date:

Saturday, January 7, 2012

  Actual Average Record
Temperature  
Mean Temperature 44 °F -  
Max Temperature 52 °F 40 °F 64 °F (2008)
Min Temperature 37 °F 26 °F -9 °F (2014)
Degree Days  
Heating Degree Days 20    
Moisture  
Dew Point 27 °F    
Average Humidity 49    
Maximum Humidity 64    
Minimum Humidity 28    
Precipitation  
Precipitation 0.00 in - - ()
Sea Level Pressure  
Sea Level Pressure 29.90 in    
Wind  
Wind Speed 11 mph (WSW)    
Max Wind Speed 15 mph    
Max Gust Speed 25 mph    
Visibility 10 miles    
Events      
Averages and records for this station are not official NWS values.
T = Trace of Precipitation, MM = Missing Value Source: NWS Daily Summary

Daily Weather History Graph

Daily Weather History Graph

Search for Another Location

Airport or City:

Trip Planner

Search our weather history database for the weather conditions in past years. The results will help you decide how hot, cold, wet, or windy it might be!

Date:

Astronomy

Jan. 07, 2012 Rise Set
Actual Time 7:42 AM EST 5:09 PM EST
Civil Twilight 7:12 AM EST 5:39 PM EST
Nautical Twilight 6:38 AM EST 6:13 PM EST
Astronomical Twilight 6:05 AM EST 6:46 PM EST
Moon 3:51 PM EST (1/7) 6:12 AM EST (1/7)
Length of Visible Light 10h 27m
Length of Day
9h 26m
Waxing Gibbous, 97% of the Moon is Illuminated
Jan 7
Waxing Gibbous
Jan 9
Full
Jan 16
Last Quarter
Jan 23
New
Jan 30
First Quarter

Hourly Weather History & Observations

Time (EST) Temp. Windchill Dew Point Humidity Pressure Visibility Wind Dir Wind Speed Gust Speed Precip Events Conditions
12:53 AM 48.9 °F - 25.0 °F 39% 29.80 in 10.0 mi SSW 11.5 mph - N/A   Clear
1:53 AM 48.9 °F - 26.1 °F 41% 29.79 in 10.0 mi SSW 12.7 mph - N/A   Clear
2:53 AM 48.2 °F - 26.6 °F 43% 29.77 in 10.0 mi SSW 10.4 mph - N/A   Clear
3:53 AM 46.9 °F - 26.1 °F 44% 29.78 in 10.0 mi SSW 11.5 mph - N/A   Clear
4:53 AM 46.0 °F 41.4 °F 28.0 °F 50% 29.78 in 10.0 mi SSW 9.2 mph - N/A   Clear
5:53 AM 46.4 °F 41.5 °F 30.2 °F 53% 29.76 in 10.0 mi SSW 10.4 mph - N/A   Clear
6:53 AM 46.4 °F 41.9 °F 32.0 °F 57% 29.76 in 10.0 mi SSW 9.2 mph - N/A   Clear
7:53 AM 46.0 °F 40.2 °F 34.0 °F 63% 29.80 in 10.0 mi SW 12.7 mph - N/A   Clear
8:53 AM 48.0 °F - 36.0 °F 63% 29.82 in 10.0 mi WSW 13.8 mph 19.6 mph N/A   Clear
9:53 AM 48.9 °F - 37.0 °F 64% 29.84 in 10.0 mi WSW 11.5 mph 20.7 mph N/A   Clear
10:53 AM 50.0 °F - 36.0 °F 59% 29.86 in 10.0 mi West 13.8 mph 19.6 mph N/A   Partly Cloudy
11:53 AM 51.1 °F - 35.1 °F 54% 29.86 in 10.0 mi West 15.0 mph 25.3 mph N/A   Clear
12:53 PM 52.0 °F - 27.0 °F 38% 29.86 in 10.0 mi West 15.0 mph 20.7 mph N/A   Partly Cloudy
1:53 PM 52.0 °F - 21.9 °F 31% 29.88 in 10.0 mi West 13.8 mph 19.6 mph N/A   Clear
2:53 PM 51.8 °F - 19.4 °F 28% 29.88 in 10.0 mi West 13.8 mph 23.0 mph N/A   Clear
3:53 PM 50.0 °F - 19.0 °F 29% 29.94 in 10.0 mi WNW 10.4 mph 19.6 mph N/A   Clear
4:53 PM 46.9 °F - 24.1 °F 41% 29.99 in 10.0 mi NW 6.9 mph - N/A   Clear
5:53 PM 44.1 °F 40.1 °F 26.1 °F 49% 30.02 in 10.0 mi NW 6.9 mph - N/A   Clear
6:53 PM 43.0 °F 38.8 °F 25.0 °F 49% 30.04 in 10.0 mi NW 6.9 mph - N/A   Clear
7:53 PM 41.0 °F 37.1 °F 25.0 °F 53% 30.06 in 10.0 mi Variable 5.8 mph - N/A   Clear
8:53 PM 39.2 °F 33.6 °F 24.8 °F 56% 30.05 in 10.0 mi NW 8.1 mph - N/A   Clear
9:53 PM 39.0 °F 36.8 °F 25.0 °F 57% 30.10 in 10.0 mi NNW 3.5 mph - N/A   Clear
10:53 PM 37.0 °F 33.3 °F 25.0 °F 62% 30.12 in 10.0 mi West 4.6 mph - N/A   Partly Cloudy
11:53 PM 37.0 °F 34.5 °F 25.0 °F 62% 30.12 in 10.0 mi West 3.5 mph - N/A   Partly Cloudy